Weather History for KMVL - December, 2013

Change the Weather History Date:

Monday, December 2, 2013

  Actual Average Record
Temperature  
Mean Temperature 33 °F 28 °F  
Max Temperature 36 °F 37 °F 55 °F (2008)
Min Temperature 29 °F 20 °F 0 °F (2002)
Degree Days  
Heating Degree Days 32 37  
Month to date heating degree days 69 73  
Since 1 July heating degree days 1852 1901  
Cooling Degree Days 0 0  
Month to date cooling degree days 0 0  
Year to date cooling degree days 401 265  
Moisture  
Dew Point 30 °F    
Average Humidity 89    
Maximum Humidity 96    
Minimum Humidity 82    
Precipitation  
Precipitation T in 0.10 in 0.95 in (1996)
Month to date precipitation 0.08 0.19  
Year to date precipitation 38.85 33.55  
Sea Level Pressure  
Sea Level Pressure 29.96 in    
Wind  
Wind Speed 0 mph (South)    
Max Wind Speed 5 mph    
Max Gust Speed 6 mph    
Visibility 5 miles    
Events Rain    
T = Trace of Precipitation, MM = Missing Value Source: NWS Daily Summary

Daily Weather History Graph

Daily Weather History Graph

Search for Another Location

Airport or City:

Trip Planner

Search our weather history database for the weather conditions in past years. The results will help you decide how hot, cold, wet, or windy it might be!

Date:

Astronomy

Dec. 02, 2013 Rise Set
Actual Time 7:08 AM EST 4:11 PM EST
Civil Twilight 6:35 AM EST 4:44 PM EST
Nautical Twilight 5:58 AM EST 5:20 PM EST
Astronomical Twilight 5:23 AM EST 5:55 PM EST
Moon 6:28 AM EST (12/2) 4:13 PM EST (12/2)
Length of Visible Light 10h 09m
Length of Day
9h 03m
Waning Crescent, 0% of the Moon is Illuminated
Dec 2
Waning Crescent
Dec 2
New
Dec 9
First Quarter
Dec 17
Full
Dec 25
Last Quarter

Hourly Weather History & Observations

Time (EST) Temp. Windchill Dew Point Humidity Pressure Visibility Wind Dir Wind Speed Gust Speed Precip Events Conditions
12:54 AM 28.9 °F - 27.0 °F 92% 30.07 in 5.0 mi Calm Calm - N/A   Overcast
1:54 AM 30.0 °F - 28.0 °F 92% 30.06 in 6.0 mi Calm Calm - N/A   Overcast
2:54 AM 30.0 °F - 28.0 °F 92% 30.05 in 5.0 mi Calm Calm - N/A   Overcast
3:26 AM 30.2 °F - 28.4 °F 93% 30.01 in 5.0 mi Calm Calm - N/A   Overcast
3:54 AM 30.0 °F - 28.0 °F 92% 30.04 in 5.0 mi Calm Calm - N/A   Overcast
4:50 AM 30.2 °F - 28.4 °F 93% 30.00 in 5.0 mi Calm Calm - N/A   Overcast
4:54 AM 30.0 °F - 28.0 °F 92% 30.03 in 5.0 mi Calm Calm - N/A   Overcast
5:54 AM 30.0 °F - 28.0 °F 92% 30.03 in 3.0 mi Calm Calm - N/A   Overcast
6:01 AM 30.2 °F - 28.4 °F 93% 30.00 in 3.0 mi Calm Calm - N/A   Overcast
6:10 AM 30.2 °F - 28.4 °F 93% 30.00 in 3.0 mi Calm Calm - N/A   Overcast
6:21 AM 30.2 °F - 28.4 °F 93% 29.99 in 3.0 mi Calm Calm - N/A   Overcast
6:54 AM 30.0 °F - 28.0 °F 92% 30.02 in 3.0 mi Calm Calm - N/A   Overcast
7:34 AM 30.2 °F - 28.4 °F 93% 29.99 in 2.0 mi Calm Calm - N/A   Overcast
7:54 AM 30.0 °F - 28.0 °F 92% 30.02 in 2.0 mi Calm Calm - N/A   Overcast
8:02 AM 30.2 °F - 28.4 °F 93% 29.99 in 2.5 mi Calm Calm - N/A   Overcast
8:38 AM 30.2 °F - 28.4 °F 93% 29.98 in 2.5 mi Calm Calm - N/A   Overcast
8:54 AM 30.9 °F - 28.9 °F 92% 30.01 in 2.5 mi Calm Calm - N/A   Overcast
9:14 AM 30.2 °F - 28.4 °F 93% 29.97 in 3.0 mi Calm Calm - N/A   Overcast
9:25 AM 30.2 °F - 30.2 °F 100% 29.97 in 3.0 mi Calm Calm - N/A   Overcast
9:54 AM 32.0 °F 28.7 °F 28.9 °F 88% 30.01 in 5.0 mi South 3.5 mph - N/A   Overcast
10:54 AM 33.1 °F - 30.0 °F 89% 30.00 in 6.0 mi Calm Calm - N/A   Overcast
11:02 AM 33.8 °F - 30.2 °F 87% 29.97 in 6.0 mi Calm Calm - N/A   Overcast
11:11 AM 33.8 °F - 30.2 °F 87% 29.96 in 7.0 mi Calm Calm - N/A   Overcast
11:31 AM 33.8 °F - 30.2 °F 87% 29.95 in 8.0 mi Calm Calm - 0.03 in   Overcast
11:54 AM 34.0 °F 31.0 °F 30.9 °F 89% 29.98 in 8.0 mi SSW 3.5 mph - 0.04 in   Overcast
12:21 PM 33.8 °F - 30.2 °F 87% 29.94 in 10.0 mi Calm Calm - 0.02 in   Overcast
12:54 PM 35.1 °F 32.2 °F 30.9 °F 85% 29.96 in 10.0 mi SSE 3.5 mph - 0.09 in   Overcast
1:40 PM 35.6 °F - 32.0 °F 87% 29.93 in 10.0 mi Calm Calm - 0.05 in   Overcast
1:51 PM 35.6 °F 32.8 °F 32.0 °F 87% 29.92 in 10.0 mi SSE 3.5 mph - 0.05 in   Overcast
1:54 PM 35.1 °F - 30.9 °F 85% 29.95 in 10.0 mi Calm Calm - 0.05 in   Overcast
2:09 PM 35.6 °F - 32.0 °F 87% 29.92 in 10.0 mi Calm Calm - N/A   Overcast
2:41 PM 35.6 °F - 32.0 °F 87% 29.91 in 10.0 mi Calm Calm - N/A   Overcast
2:54 PM 35.1 °F - 30.9 °F 85% 29.95 in 9.0 mi Calm Calm - N/A   Overcast
3:11 PM 35.6 °F - 32.0 °F 87% 29.91 in 8.0 mi Calm Calm - N/A   Overcast
3:46 PM 35.6 °F - 32.0 °F 87% 29.90 in 7.0 mi Calm Calm - N/A   Overcast
3:54 PM 35.1 °F - 32.0 °F 89% 29.94 in 7.0 mi Calm Calm - N/A   Overcast
4:19 PM 33.8 °F - 32.0 °F 93% 29.90 in 6.0 mi Calm Calm - N/A   Overcast
4:54 PM 34.0 °F - 30.9 °F 89% 29.93 in 5.0 mi Calm Calm - N/A   Overcast
5:54 PM 34.0 °F - 32.0 °F 92% 29.94 in 6.0 mi Calm Calm - N/A   Overcast
6:54 PM 34.0 °F - 30.9 °F 89% 29.95 in 6.0 mi Calm Calm - N/A   Overcast
7:20 PM 33.8 °F - 32.0 °F 93% 29.92 in 5.0 mi Calm Calm - N/A   Overcast
7:54 PM 33.1 °F - 32.0 °F 96% 29.95 in 4.0 mi Calm Calm - N/A   Overcast
8:03 PM 33.8 °F - 32.0 °F 93% 29.93 in 4.0 mi Calm Calm - N/A   Overcast
8:17 PM 33.8 °F - 30.2 °F 87% 29.92 in 3.0 mi Calm Calm - 0.00 in   Overcast
8:44 PM 33.8 °F - 32.0 °F 93% 29.93 in 4.0 mi Calm Calm - 0.00 in Rain Light Rain
8:54 PM 33.1 °F - 32.0 °F 96% 29.96 in 4.0 mi Calm Calm - 0.00 in   Overcast
9:24 PM 33.8 °F - 30.2 °F 87% 29.92 in 2.5 mi Calm Calm - 0.00 in   Overcast
9:51 PM 33.8 °F - 32.0 °F 93% 29.92 in 2.5 mi Calm Calm - 0.00 in   Overcast
9:54 PM 33.1 °F - 32.0 °F 96% 29.95 in 2.5 mi Calm Calm - 0.00 in   Overcast
10:21 PM 33.8 °F - 32.0 °F 93% 29.91 in 3.0 mi Calm Calm - N/A   Overcast
10:29 PM 33.8 °F - 30.2 °F 87% 29.91 in 2.0 mi Calm Calm - N/A   Overcast
10:39 PM 33.8 °F - 30.2 °F 87% 29.91 in 2.5 mi Calm Calm - N/A   Overcast
10:54 PM 33.1 °F - 30.9 °F 92% 29.95 in 2.5 mi Calm Calm - N/A   Overcast
11:01 PM 33.8 °F - 30.2 °F 87% 29.92 in 2.5 mi Calm Calm - N/A   Overcast
11:09 PM 33.8 °F - 30.2 °F 87% 29.92 in 2.5 mi Calm Calm - N/A   Overcast
11:21 PM 33.8 °F - 30.2 °F 87% 29.92 in 1.5 mi Calm Calm - N/A   Overcast
11:33 PM 33.8 °F - 30.2 °F 87% 29.91 in 2.0 mi Calm Calm - N/A   Overcast
11:54 PM 33.1 °F - 30.9 °F 92% 29.94 in 2.0 mi Calm Calm - N/A   Overcast